TimeMDT,TemperatureF,Dew PointF,Humidity,Sea Level PressureIn,VisibilityMPH,Wind Direction,Wind SpeedMPH,Gust SpeedMPH,PrecipitationIn,Events,Conditions,WindDirDegrees,DateUTC
12:53 AM,12.9,7.0,77,30.35,10.0,SE,4.6,-,N/A,,Mostly Cloudy,130,2013-03-24 06:53:00
1:53 AM,10.0,5.0,80,30.37,10.0,SE,4.6,-,N/A,,Clear,140,2013-03-24 07:53:00
2:53 AM,8.1,3.9,83,30.37,10.0,SE,5.8,-,N/A,,Clear,140,2013-03-24 08:53:00
3:53 AM,8.1,3.9,83,30.37,10.0,SE,4.6,-,N/A,,Clear,140,2013-03-24 09:53:00
4:53 AM,6.1,3.0,87,30.38,10.0,SE,4.6,-,N/A,,Clear,140,2013-03-24 10:53:00
5:23 AM,6.8,3.2,85,30.17,10.0,ESE,3.5,-,N/A,,Mostly Cloudy,120,2013-03-24 11:23:00
5:41 AM,6.8,3.2,85,30.17,10.0,Calm,Calm,-,N/A,,Scattered Clouds,0,2013-03-24 11:41:00
5:53 AM,8.1,3.9,83,30.38,10.0,SSE,4.6,-,N/A,,Scattered Clouds,160,2013-03-24 11:53:00
6:02 AM,8.6,3.2,79,30.17,10.0,South,4.6,-,N/A,,Mostly Cloudy,190,2013-03-24 12:02:00
6:26 AM,8.6,3.2,79,30.18,3.0,Calm,Calm,-,0.00,Snow,Light Snow,0,2013-03-24 12:26:00
6:53 AM,7.0,3.9,87,30.40,7.0,Calm,Calm,-,0.00,,Mostly Cloudy,0,2013-03-24 12:53:00
7:24 AM,6.8,3.2,85,30.18,7.0,Calm,Calm,-,0.00,,Overcast,0,2013-03-24 13:24:00
7:38 AM,6.8,3.2,85,30.19,4.0,SE,3.5,-,0.00,,Overcast,130,2013-03-24 13:38:00
7:53 AM,7.0,3.0,84,30.42,4.0,SSE,3.5,-,0.00,,Overcast,150,2013-03-24 13:53:00
8:11 AM,6.8,3.2,85,30.19,9.0,SE,4.6,-,N/A,,Scattered Clouds,140,2013-03-24 14:11:00
8:53 AM,9.0,5.0,84,30.42,10.0,Calm,Calm,-,N/A,,Clear,0,2013-03-24 14:53:00
9:53 AM,14.0,9.0,80,30.42,10.0,Calm,Calm,-,N/A,,Clear,0,2013-03-24 15:53:00
10:53 AM,18.0,10.0,71,30.41,10.0,Calm,Calm,-,N/A,,Clear,0,2013-03-24 16:53:00
11:53 AM,23.0,9.0,55,30.39,10.0,Calm,Calm,-,N/A,,Clear,0,2013-03-24 17:53:00
12:53 PM,25.0,7.0,46,30.37,10.0,Variable,4.6,-,N/A,,Clear,0,2013-03-24 18:53:00
1:53 PM,26.1,3.0,37,30.37,10.0,WSW,4.6,-,N/A,,Clear,250,2013-03-24 19:53:00
2:53 PM,28.9,5.0,36,30.35,10.0,NW,9.2,-,N/A,,Clear,310,2013-03-24 20:53:00
3:53 PM,28.0,-0.0,30,30.34,10.0,South,4.6,-,N/A,,Clear,180,2013-03-24 21:53:00
4:53 PM,30.0,1.9,30,30.34,10.0,West,6.9,-,N/A,,Clear,280,2013-03-24 22:53:00
5:53 PM,30.2,1.4,29,30.13,10.0,Calm,Calm,-,N/A,,Clear,0,2013-03-24 23:53:00
6:53 PM,30.0,1.9,30,30.31,10.0,SSE,3.5,-,N/A,,Clear,160,2013-03-25 00:53:00
7:53 PM,28.0,1.9,33,30.30,10.0,Calm,Calm,-,N/A,,Clear,0,2013-03-25 01:53:00
8:53 PM,23.0,10.9,60,30.32,10.0,SSE,5.8,-,N/A,,Clear,150,2013-03-25 02:53:00
9:53 PM,21.9,7.0,53,30.31,10.0,South,4.6,-,N/A,,Clear,190,2013-03-25 03:53:00
10:53 PM,19.0,7.0,59,30.31,10.0,ESE,3.5,-,N/A,,Clear,120,2013-03-25 04:53:00
11:53 PM,16.0,8.1,71,30.30,10.0,ESE,4.6,-,N/A,,Clear,120,2013-03-25 05:53:00